Wichita Mid Continent Airport
KICT : rendu visible

Aérodrome :











RETROUVEZ-NOUS SUR...

 
LOGIN :

S'inscrire | Disclaimer

   EN    FR    IT 

 









Légende :    VFR   VFR Marginal   IFR   IFR Intensif   IFR Très Intensif
Visi : 
Plafond : 
>= 8 km
>= 3000ft
5 à 8 km
1000 à 3000 ft
1500m à 5 km
500 à 1000 ft
800 à 1500m
200 à 500 ft
< 800m
< 200 ft
Symboles :   Orages  Brouillard  Fortes neiges  Fortes précipitations  Vent > 20 kt







- Altitude de l'aérodrome : 1333 ft
- Code IATA : ICT


KICT - Wichita Mid Continent

DERNIER METAR :
  • 170953Z 16008KT 10SM BKN250 23/19 A3000 RMK AO2 SLP141 T02280194

METARs EXPIRÉS :
  • 170853Z 17009KT 10SM BKN250 23/19 A3000 RMK AO2 SLP141 T02330194 58002
  • 170753Z 16008KT 10SM SCT250 24/19 A3001 RMK AO2 SLP146 T02390194

TAF KICT
Valide du 17 à 06h jusqu'au 18 à 06h UTC


170520Z 1706/1806 16012KT P6SM SCT250
FM171600 18017G27KT P6SM FEW150
FM180100 17012KT P6SM SCT200
Pas de NOTAMs connus pour ce terrain.



MET'MAP, la Météo Aéronautique d'un coup d'oeil ! - Copyright ORBIFLY Décembre 2007 - Disclaimer

ORBIFLY MET'MAP TEAM :

Programmation & Développement : Alexandra Zaïnal
Conception & Développement : Baudouin d'Aumeries
Co-Programmation & Développement : Marc-Olivier Méhu
Soutien technique & logistique : Manuel Goepfert

Contact : metmap@orbifly.com




SOURCES & CREDITS :

   NOAA       Earth
Advisory